Weather observations for the past three days for
Longview - East Texas Regional Airport
Imperial (Metric)
Date Time (cdt) Wind (mph) Vis. (mi.) Weather Sky Cond. Temperature (ºF) Relative Humidity Wind Chill (°F) Heat Index (°F) Pressure Precipitation (in)
Air Dwpt 6 hour altimeter (in) sea level (mb) 1 hr 3 hr 6 hr
Max. Min.
22 04:53 Calm 10.00 Fair CLR 73 71.1 94% 29.98 1014.4
22 03:53 Calm 10.00 Mostly Cloudy FEW048 BKN065 72 71.1 97% 29.98 1014.5
22 02:53 Calm 10.00 Fair CLR 73 71.1 94% 29.97 1014.3
22 01:53 Calm 10.00 Fair CLR 72 71.1 97% 29.97 1014.3
22 00:53 Calm 10.00 Fair CLR 73 72 84.9 72 96% 29.99 1014.7 0.02
21 23:53 Calm 10.00 A Few Clouds FEW085 73 72 96% 29.99 1014.7
21 22:53 Calm 10.00 Light Rain FEW070 FEW110 73.9 72 94% 30.01 1015.4 0.01
21 21:53 NW 5 10.00 Light Rain SCT047 BKN060 BKN090 75 71.1 88% 75 30 1015.2 0.01 0.01
21 20:53 SW 5 10.00 Partly Cloudy FEW044 SCT080 78.1 69.1 74% 80 29.99 1014.7
21 19:53 SW 10 10.00 Mostly Cloudy SCT048 BKN065 81 70 69% 84 29.97 1014.4
21 18:53 NE 6 10.00 Fair CLR 84.9 71.1 90 82 63% 90 29.95 1013.7
21 17:53 NE 8 10.00 Partly Cloudy SCT110 86 71.1 61% 92 29.96 1013.9
21 16:53 NE 5 10.00 Mostly Cloudy BKN110 84.9 72 65% 91 29.95 1013.7
21 15:53 N 5 10.00 Light Rain SCT041 BKN070 OVC100 84 73 70% 90 29.96 1014.0
21 14:53 N 6 10.00 Mostly Cloudy SCT095 BKN120 84 72 67% 90 29.97 1014.4
21 13:53 NE 6 10.00 A Few Clouds FEW047 89.1 71.1 55% 95 29.99 1014.9
21 12:53 N 3 10.00 Fair CLR 88 72 88 69.1 59% 95 30.01 1015.5
21 11:53 Vrbl 3 10.00 Partly Cloudy FEW031 SCT042 86 72 63% 92 30.02 1016.0
21 10:53 Calm 10.00 A Few Clouds FEW023 84.9 71.1 63% 90 30.03 1016.0
21 09:53 Calm 10.00 Fair CLR 82.9 69.1 63% 87 30.04 1016.5
21 08:53 SE 5 10.00 A Few Clouds FEW037 79 70 74% 82 30.04 1016.8
21 07:53 Calm 10.00 Fair CLR 73.9 70 88% 30.03 1016.3
21 06:53 Calm 10.00 Fair CLR 69.1 66.9 72 68 93% 30.03 1016.1
21 05:53 Calm 10.00 Fair CLR 69.1 66.9 93% 30.01 1015.7
21 04:53 Calm 10.00 Fair CLR 69.1 66.9 93% 30 1015.2
21 03:53 Calm 10.00 Fair CLR 70 68 93% 30.01 1015.5
21 02:53 Calm 10.00 Fair CLR 70 68 93% 30.01 1015.7
21 01:53 Calm 10.00 Fair CLR 71.1 68 90% 30.03 1016.1
21 00:53 Calm 10.00 Fair CLR 71.1 66.9 86 71.1 87% 30.04 1016.4
20 23:53 Calm 10.00 Fair CLR 71.1 68 90% 30.05 1016.9
20 22:53 E 5 10.00 Fair CLR 73 68 84% 30.03 1016.3
20 21:53 Calm 10.00 Fair CLR 73.9 69.1 85% 30.02 1016.1
20 20:53 Calm 10.00 Fair CLR 75.9 69.1 79% 77 30 1015.4
20 19:53 Calm 10.00 Fair CLR 81 68 65% 84 30 1015.2
20 18:53 E 7 10.00 Fair CLR 86 66 88 82.9 51% 88 30 1015.2
20 17:53 E 7 10.00 Fair CLR 87.1 64.9 48% 89 30 1015.3
20 16:53 NE 8 10.00 Fair CLR 88 66 48% 90 30.02 1015.9
20 15:53 Vrbl 6 10.00 A Few Clouds FEW055 88 64.9 46% 90 30.03 1016.2
20 14:53 NE 7 10.00 Partly Cloudy SCT055 87.1 66.9 51% 90 30.04 1016.7
20 13:53 Vrbl 6 10.00 A Few Clouds FEW047 86 68 55% 89 30.06 1017.2
20 12:53 NW 6 10.00 Mostly Cloudy BKN040 82.9 66.9 86 68 59% 86 30.07 1017.5
20 11:53 Vrbl 5 10.00 Partly Cloudy SCT030 84 69.1 61% 88 30.07 1017.5
20 10:53 Calm 10.00 Fair CLR 82 70 67% 86 30.07 1017.6
20 09:53 Vrbl 3 10.00 Fair CLR 80.1 68 67% 83 30.07 1017.8
20 08:53 Calm 10.00 Fair CLR 77 70 79% 79 30.08 1017.8
20 07:53 Calm 6.00 Fog/Mist CLR 73 70 90% 30.06 1017.2
20 06:53 Calm 10.00 Fair CLR 66.9 66 72 66.9 97% 30.05 1017.1
20 05:53 Calm 10.00 Fair CLR 68 66.9 96% 30.05 1016.9
20 04:53 Calm 10.00 Fair CLR 68 66.9 96% 30.03 1016.3
20 03:53 Calm 10.00 Fair CLR 69.1 66.9 93% 30.02 1015.8
20 02:53 E 3 10.00 Fair CLR 69.1 66.9 93% 30.02 1015.8
20 01:53 E 5 10.00 Fair CLR 70 66 87% 30.02 1016.0
20 00:53 Calm 10.00 Fair CLR 71.1 66 84 71.1 84% 30.03 1016.2
19 23:53 E 3 10.00 Fair CLR 73 66 79% 30.03 1016.3
19 22:53 E 5 10.00 Fair CLR 73 66 79% 30.03 1016.3
19 21:53 Calm 10.00 Fair CLR 73.9 66 76% 30.02 1015.8
19 20:53 NE 3 10.00 Fair CLR 77 64.9 66% 79 30 1015.4
19 19:53 NE 3 10.00 Fair CLR 79 64.9 62% 81 30 1015.1
19 18:53 NE 6 10.00 A Few Clouds FEW060 84 64 88 82 51% 85 29.99 1014.9
19 17:53 NE 7 10.00 Fair CLR 86 64 48% 87 29.99 1014.9
19 16:53 NE 12 10.00 Partly Cloudy SCT055 87.1 64.9 48% 89 30 1015.1
19 15:53 NE 5 10.00 Partly Cloudy SCT060 84 64 51% 85 30.01 1015.4
19 14:53 NE 7 10.00 Partly Cloudy SCT050 86 64.9 49% 88 30.02 1015.8
19 13:53 N 7 10.00 A Few Clouds FEW049 84.9 66 53% 87 30.03 1016.3
19 12:53 NE 9 G 20 10.00 A Few Clouds FEW025 86 66 86 73 51% 88 30.05 1017.0
19 11:53 NE 7 10.00 A Few Clouds FEW028 84 64.9 53% 86 30.07 1017.5
19 10:53 NE 8 10.00 A Few Clouds FEW028 82 69.1 65% 85 30.08 1018.0
19 09:53 NE 5 10.00 A Few Clouds FEW018 79 70 74% 82 30.08 1018.0
19 08:53 NE 6 10.00 A Few Clouds FEW016 77 70 79% 79 30.08 1017.9
19 07:53 N 5 10.00 Partly Cloudy FEW008 SCT038 73.9 71.1 91% 30.07 1017.5
19 06:53 NE 5 10.00 Mostly Cloudy FEW006 BKN033 73 71.1 73.9 73 94% 30.04 1016.6 0.1
19 05:53 N 3 10.00 Overcast SCT007 OVC032 73 72 96% 30.03 1016.3
Date Time (cdt) Wind (mph) Vis. (mi.) Weather Sky Cond. Air Dwpt Max. Min. Relative Humidity Wind Chill (°F) Heat Index (°F) altimeter (in) sea level (mb) 1 hr 3 hr 6 hr
6 hour
Temperature (ºF) Pressure Precipitation (in)